Starlink 6187

operational
NORAD ID: 56546 Int'l Des: 2023-065 Owner: SPXS Country: US Constellation: starlink
LEOCIRCULAR

Über Starlink 6187

Beschreibung wird geladen...

Live-Position

3D-Globus wird geladen...

Nächste Überflüge

Höhenverlauf

Altitude vs Time

uPlot chart will show altitude changes over time

Zweizeiliger Elementsatz

1 56546U 23065AV 26073.25002315 .00654848 00000-0 28550-1 0 9994
2 56546 43.0012 197.4760 0001544 273.0344 90.6896 15.19268078 5672
Epoch: 14. März 2026 • Age: 10 hours

Aktueller Status

Höhe 505.9 km
Geschwindigkeit 7.61 km/s
Subsatellitenpunkt 9.86°N, 50.49°W
Startdatum 14. Mai 2023
Alter 2.8 years
Typ internet

Technische Details

Klassifizierung Payload
Masse 305.00 kg
Trockenmasse 290.00 kg
Gesamtmasse 305.00 kg
Länge 0.20 m
Durchmesser 2.80 m
Spannweite 9.00 m
Form Box + pan
Hersteller SPXS
Bus-Typ Starlink
Phasenstatus In Orbit
Besitzer/Staat SPXS/US

Große Konstellationen

Loading constellations...